Tracking 29892 objects as of 21-Nov-2024
HD Live streaming from Space Station
objects crossing your sky now

CZ-3 R/B

Track CZ-3 R/B now!


NORAD ID: 16528
Int'l Code: 1986-010B
Perigee: 515.8 km
Apogee: 34,926.3 km
Inclination: 30.8 °
Period: 620.3 minutes
Semi major axis: 24092 km
RCS: 11.1248 m2 (large)
Launch date: February 1, 1986
Source: People's Republic of China (PRC)
Launch site: Xichang Space Center, China (XSC)

Note: This is a ROCKET BODY
Your satellite tracking list
Your tracking list is empty




NASA's NSSDC Master Catalog

Two Line Element Set (TLE):
1 16528U 86010B   24325.79476115  .00000112  00000-0  11489-2 0  9992
2 16528  30.7955  85.2257 7141463 252.6771  23.4096  2.32162311275984
Source of the keplerian elements: AFSPC